| time (UTC) | temp F | wind direction | speed MPH | gust MPH | rain 1hr in | rain 24hr in | rain mn in | humidity % | barometer mb |
| 20260504160204 | 66 | 223 | 13.0 | 26.0 | 0.00 | 0.00 | 0.00 | 34 | 1010.1 |
| 20260504150704 | 65 | 211 | 7.0 | 16.0 | 0.00 | 0.00 | 0.00 | 35 | 1010.5 |
| 20260504150204 | 65 | 210 | 7.0 | 17.0 | 0.00 | 0.00 | 0.00 | 36 | 1010.7 |
| 20260504141204 | 62 | 232 | 5.0 | 20.0 | 0.00 | 0.00 | 0.00 | 41 | 1011.1 |
| 20260504140704 | 62 | 251 | 8.0 | 20.0 | 0.00 | 0.00 | 0.00 | 39 | 1011.2 |
| 20260504140204 | 61 | 227 | 6.0 | 22.0 | 0.00 | 0.00 | 0.00 | 41 | 1011.3 |
| 20260504120204 | 51 | 216 | 2.0 | 3.0 | 0.00 | 0.00 | 0.00 | 55 | 1012.2 |
| 20260504110704 | 49 | 218 | 1.0 | 3.0 | 0.00 | 0.00 | 0.00 | 58 | 1012.2 |
| 20260504110204 | 49 | 205 | 2.0 | 5.0 | 0.00 | 0.00 | 0.00 | 58 | 1012.2 |
| 20260504081704 | 44 | 205 | 0.0 | 2.0 | 0.00 | 0.00 | 0.00 | 66 | 1011.2 |
| 20260504080704 | 44 | 205 | 0.0 | 2.0 | 0.00 | 0.00 | 0.00 | 66 | 1011.3 |
| 20260504070205 | 44 | 264 | 0.0 | 0.0 | 0.00 | 0.00 | 0.00 | 65 | 1011.2 |
| 20260504060204 | 43 | 285 | 0.0 | 0.0 | 0.00 | 0.00 | 0.00 | 68 | 1011.2 |
| 20260504050704 | 42 | 285 | 0.0 | 0.0 | 0.00 | 0.00 | 0.00 | 67 | 1011.3 |
| 20260504050204 | 42 | 285 | 0.0 | 0.0 | 0.00 | 0.00 | 0.00 | 67 | 1011.3 |
| 20260504045704 | 43 | 285 | 0.0 | 0.0 | 0.00 | 0.00 | 0.00 | 67 | 1011.3 |
| 20260504044704 | 43 | 285 | 0.0 | 0.0 | 0.00 | 0.00 | 0.00 | 66 | 1011.3 |
| 20260504044204 | 43 | 285 | 0.0 | 0.0 | 0.00 | 0.00 | 0.00 | 64 | 1011.4 |
| 20260504042704 | 43 | 285 | 0.0 | 0.0 | 0.00 | 0.00 | 0.00 | 64 | 1011.3 |
| 20260504042204 | 43 | 285 | 0.0 | 0.0 | 0.00 | 0.00 | 0.00 | 66 | 1011.3 |
| 20260504041704 | 43 | 285 | 0.0 | 0.0 | 0.00 | 0.00 | 0.00 | 66 | 1011.3 |
| 20260504041204 | 43 | 285 | 0.0 | 0.0 | 0.00 | 0.00 | 0.00 | 66 | 1011.2 |
| 20260504040204 | 44 | 285 | 0.0 | 0.0 | 0.00 | 0.00 | 0.00 | 65 | 1011.2 |
| 20260504035204 | 44 | 285 | 0.0 | 0.0 | 0.00 | 0.00 | 0.00 | 65 | 1011.2 |
| 20260504034704 | 44 | 285 | 0.0 | 0.0 | 0.00 | 0.00 | 0.00 | 65 | 1011.2 |
| 20260504034204 | 44 | 285 | 0.0 | 0.0 | 0.00 | 0.00 | 0.00 | 63 | 1011.2 |
| 20260504033704 | 44 | 285 | 0.0 | 0.0 | 0.00 | 0.00 | 0.00 | 64 | 1011.1 |
| 20260504033204 | 45 | 285 | 0.0 | 0.0 | 0.00 | 0.00 | 0.00 | 63 | 1011.1 |
| 20260504032704 | 45 | 285 | 0.0 | 0.0 | 0.00 | 0.00 | 0.00 | 62 | 1011.0 |
| 20260504032205 | 45 | 285 | 0.0 | 0.0 | 0.00 | 0.00 | 0.00 | 62 | 1011.0 |
| 20260504031704 | 45 | 285 | 0.0 | 0.0 | 0.00 | 0.00 | 0.00 | 62 | 1011.0 |
| 20260504031204 | 45 | 285 | 0.0 | 0.0 | 0.00 | 0.00 | 0.00 | 61 | 1011.0 |
| 20260504030704 | 45 | 285 | 0.0 | 0.0 | 0.00 | 0.00 | 0.00 | 61 | 1011.1 |
| 20260504030204 | 45 | 285 | 0.0 | 0.0 | 0.00 | 0.00 | 0.00 | 59 | 1011.0 |
| 20260504025704 | 45 | 285 | 0.0 | 0.0 | 0.00 | 0.00 | 0.00 | 59 | 1011.0 |
| 20260504023704 | 46 | 285 | 0.0 | 0.0 | 0.00 | 0.00 | 0.00 | 58 | 1011.0 |
| 20260504023204 | 46 | 285 | 0.0 | 0.0 | 0.00 | 0.00 | 0.00 | 58 | 1010.9 |
| 20260504022704 | 47 | 285 | 0.0 | 0.0 | 0.00 | 0.00 | 0.00 | 57 | 1010.9 |
| 20260504021704 | 47 | 285 | 0.0 | 0.0 | 0.00 | 0.00 | 0.00 | 55 | 1010.8 |
| 20260504021204 | 47 | 285 | 0.0 | 0.0 | 0.00 | 0.00 | 0.00 | 56 | 1010.9 |
| 20260504020704 | 47 | 285 | 0.0 | 0.0 | 0.00 | 0.00 | 0.00 | 54 | 1010.8 |
| 20260504020204 | 47 | 285 | 0.0 | 0.0 | 0.00 | 0.00 | 0.00 | 54 | 1010.8 |
| 20260504015704 | 48 | 285 | 0.0 | 0.0 | 0.00 | 0.00 | 0.00 | 55 | 1010.7 |
| 20260504015204 | 48 | 285 | 0.0 | 0.0 | 0.00 | 0.00 | 0.00 | 55 | 1010.7 |
| 20260504014703 | 48 | 285 | 0.0 | 0.0 | 0.00 | 0.00 | 0.00 | 54 | 1010.6 |
| 20260504013704 | 48 | 285 | 0.0 | 0.0 | 0.00 | 0.00 | 0.00 | 54 | 1010.6 |
| 20260504012704 | 49 | 285 | 0.0 | 0.0 | 0.00 | 0.00 | 0.00 | 54 | 1010.6 |
| 20260504012204 | 49 | 285 | 0.0 | 0.0 | 0.00 | 0.00 | 0.00 | 55 | 1010.5 |
| 20260504011704 | 49 | 285 | 0.0 | 0.0 | 0.00 | 0.00 | 0.00 | 54 | 1010.5 |
| 20260504011204 | 49 | 285 | 0.0 | 0.0 | 0.00 | 0.00 | 0.00 | 53 | 1010.3 |
| 20260504010704 | 49 | 285 | 0.0 | 0.0 | 0.00 | 0.00 | 0.00 | 52 | 1010.3 |
| 20260504010204 | 49 | 285 | 0.0 | 0.0 | 0.00 | 0.00 | 0.00 | 50 | 1010.3 |
| 20260504005705 | 49 | 285 | 0.0 | 0.0 | 0.00 | 0.00 | 0.00 | 50 | 1010.2 |
| 20260504005204 | 50 | 285 | 0.0 | 0.0 | 0.00 | 0.00 | 0.00 | 50 | 1010.1 |
| 20260504004704 | 50 | 285 | 0.0 | 0.0 | 0.00 | 0.00 | 0.00 | 49 | 1009.9 |
| 20260504003704 | 51 | 285 | 0.0 | 0.0 | 0.00 | 0.00 | 0.00 | 46 | 1009.8 |
| 20260504003204 | 51 | 285 | 0.0 | 0.0 | 0.00 | 0.00 | 0.00 | 46 | 1009.7 |
| 20260504002204 | 52 | 285 | 0.0 | 0.0 | 0.00 | 0.00 | 0.00 | 46 | 1009.5 |
| 20260504001204 | 53 | 285 | 0.0 | 0.0 | 0.00 | 0.00 | 0.00 | 43 | 1009.4 |
| 20260504000705 | 53 | 285 | 0.0 | 0.0 | 0.00 | 0.00 | 0.00 | 41 | 1009.4 |
| 20260504000204 | 54 | 285 | 0.0 | 0.0 | 0.00 | 0.00 | 0.00 | 40 | 1009.3 |
| 20260503235704 | 54 | 285 | 0.0 | 0.0 | 0.00 | 0.00 | 0.00 | 39 | 1009.3 |
| 20260503235204 | 54 | 285 | 0.0 | 0.0 | 0.00 | 0.00 | 0.00 | 38 | 1009.2 |
| 20260503234204 | 55 | 282 | 1.0 | 2.0 | 0.00 | 0.00 | 0.00 | 36 | 1009.2 |
| 20260503233703 | 55 | 261 | 1.0 | 1.0 | 0.00 | 0.00 | 0.00 | 37 | 1009.1 |
| 20260503233204 | 55 | 306 | 0.0 | 2.0 | 0.00 | 0.00 | 0.00 | 36 | 1009.0 |
| 20260503232704 | 55 | 327 | 1.0 | 2.0 | 0.00 | 0.00 | 0.00 | 35 | 1009.0 |
| 20260503232205 | 55 | 281 | 1.0 | 5.0 | 0.00 | 0.00 | 0.00 | 36 | 1009.0 |
| 20260503231703 | 55 | 297 | 2.0 | 7.0 | 0.00 | 0.00 | 0.00 | 35 | 1009.0 |
| 20260503231204 | 55 | 255 | 1.0 | 7.0 | 0.00 | 0.00 | 0.00 | 35 | 1008.9 |
| 20260503230704 | 55 | 284 | 2.0 | 8.0 | 0.00 | 0.00 | 0.00 | 35 | 1008.9 |
| 20260503230204 | 55 | 313 | 3.0 | 9.0 | 0.00 | 0.00 | 0.00 | 36 | 1008.9 |
| 20260503225704 | 55 | 308 | 3.0 | 10.0 | 0.00 | 0.00 | 0.00 | 34 | 1008.9 |
| 20260503225204 | 55 | 306 | 5.0 | 9.0 | 0.00 | 0.00 | 0.00 | 34 | 1008.8 |
| 20260503224704 | 56 | 257 | 3.0 | 9.0 | 0.00 | 0.00 | 0.00 | 35 | 1008.8 |
| 20260503224204 | 56 | 11 | 3.0 | 8.0 | 0.00 | 0.00 | 0.00 | 36 | 1008.8 |
| 20260503223204 | 56 | 303 | 3.0 | 8.0 | 0.00 | 0.00 | 0.00 | 35 | 1008.9 |
| 20260503222703 | 56 | 344 | 2.0 | 7.0 | 0.00 | 0.00 | 0.00 | 35 | 1008.7 |
| 20260503222204 | 56 | 2 | 1.0 | 3.0 | 0.00 | 0.00 | 0.00 | 36 | 1008.7 |
| 20260503221704 | 56 | 336 | 3.0 | 5.0 | 0.00 | 0.00 | 0.00 | 36 | 1008.7 |
| 20260503221204 | 56 | 287 | 1.0 | 5.0 | 0.00 | 0.00 | 0.00 | 36 | 1008.6 |
| 20260503220704 | 56 | 338 | 3.0 | 7.0 | 0.00 | 0.00 | 0.00 | 35 | 1008.8 |
| 20260503220204 | 57 | 319 | 2.0 | 7.0 | 0.00 | 0.00 | 0.00 | 35 | 1008.8 |
| 20260503215704 | 57 | 3 | 3.0 | 8.0 | 0.00 | 0.00 | 0.00 | 36 | 1008.8 |
| 20260503215204 | 57 | 28 | 2.0 | 8.0 | 0.00 | 0.00 | 0.00 | 36 | 1008.8 |
| 20260503214204 | 57 | 301 | 2.0 | 14.0 | 0.00 | 0.00 | 0.00 | 38 | 1008.8 |
| 20260503213204 | 56 | 350 | 3.0 | 7.0 | 0.00 | 0.00 | 0.00 | 36 | 1008.8 |
| 20260503212204 | 56 | 256 | 5.0 | 12.0 | 0.00 | 0.00 | 0.00 | 36 | 1008.8 |
| 20260503211204 | 57 | 334 | 7.0 | 15.0 | 0.00 | 0.00 | 0.00 | 36 | 1008.9 |
| 20260503210704 | 56 | 294 | 3.0 | 8.0 | 0.00 | 0.00 | 0.00 | 37 | 1008.8 |
| 20260503210204 | 56 | 328 | 2.0 | 12.0 | 0.00 | 0.00 | 0.00 | 37 | 1008.7 |
| 20260503205704 | 56 | 307 | 6.0 | 16.0 | 0.00 | 0.00 | 0.00 | 37 | 1008.7 |
| 20260503204704 | 56 | 359 | 6.0 | 12.0 | 0.00 | 0.00 | 0.00 | 36 | 1008.6 |
| 20260503204204 | 56 | 321 | 6.0 | 14.0 | 0.00 | 0.00 | 0.00 | 37 | 1008.6 |
| 20260503203704 | 56 | 293 | 7.0 | 14.0 | 0.00 | 0.00 | 0.00 | 36 | 1008.6 |
| 20260503203204 | 56 | 273 | 3.0 | 9.0 | 0.00 | 0.00 | 0.00 | 39 | 1008.7 |
| 20260503202204 | 55 | 347 | 4.0 | 14.0 | 0.00 | 0.00 | 0.00 | 36 | 1008.7 |
| 20260503201704 | 55 | 278 | 5.0 | 12.0 | 0.00 | 0.00 | 0.00 | 38 | 1008.6 |
| 20260503201204 | 55 | 310 | 8.0 | 16.0 | 0.00 | 0.00 | 0.00 | 36 | 1008.6 |
| 20260503200704 | 55 | 322 | 6.0 | 20.0 | 0.00 | 0.00 | 0.00 | 36 | 1008.6 |
| 20260503200204 | 56 | 343 | 3.0 | 13.0 | 0.00 | 0.00 | 0.00 | 38 | 1008.6 |
| 20260503195704 | 56 | 275 | 4.0 | 12.0 | 0.00 | 0.00 | 0.00 | 38 | 1008.6 |
| 20260503195204 | 56 | 305 | 8.0 | 20.0 | 0.00 | 0.00 | 0.00 | 36 | 1008.6 |
| 20260503194704 | 56 | 303 | 5.0 | 12.0 | 0.00 | 0.00 | 0.00 | 38 | 1008.6 |
| 20260503194204 | 56 | 330 | 4.0 | 14.0 | 0.00 | 0.00 | 0.00 | 39 | 1008.4 |
| 20260503193704 | 56 | 283 | 7.0 | 15.0 | 0.00 | 0.00 | 0.00 | 37 | 1008.4 |
| 20260503193204 | 55 | 307 | 7.0 | 17.0 | 0.00 | 0.00 | 0.00 | 37 | 1008.4 |
| 20260503192704 | 55 | 285 | 5.0 | 13.0 | 0.00 | 0.00 | 0.00 | 39 | 1008.5 |
| 20260503192204 | 54 | 317 | 3.0 | 14.0 | 0.00 | 0.00 | 0.00 | 40 | 1008.5 |
| 20260503191704 | 54 | 354 | 6.0 | 12.0 | 0.00 | 0.00 | 0.00 | 40 | 1008.6 |
| 20260503191204 | 54 | 301 | 7.0 | 18.0 | 0.00 | 0.00 | 0.00 | 37 | 1008.5 |
| 20260503190704 | 54 | 305 | 2.0 | 12.0 | 0.00 | 0.00 | 0.00 | 39 | 1008.5 |
| 20260503190204 | 54 | 319 | 5.0 | 12.0 | 0.00 | 0.00 | 0.00 | 38 | 1008.6 |
| 20260503185704 | 54 | 331 | 3.0 | 14.0 | 0.00 | 0.00 | 0.00 | 38 | 1008.6 |
| 20260503185205 | 55 | 332 | 6.0 | 20.0 | 0.00 | 0.01 | 0.00 | 37 | 1008.5 |
| 20260503184704 | 55 | 291 | 6.0 | 14.0 | 0.00 | 0.01 | 0.00 | 36 | 1008.4 |
| 20260503184204 | 55 | 310 | 6.0 | 12.0 | 0.00 | 0.01 | 0.00 | 39 | 1008.5 |
| 20260503183704 | 54 | 331 | 4.0 | 10.0 | 0.00 | 0.02 | 0.00 | 39 | 1008.5 |
| 20260503183204 | 54 | 2 | 5.0 | 15.0 | 0.00 | 0.02 | 0.00 | 38 | 1008.4 |
| 20260503182704 | 54 | 319 | 2.0 | 10.0 | 0.00 | 0.03 | 0.00 | 39 | 1008.4 |
| 20260503182204 | 54 | 357 | 4.0 | 16.0 | 0.00 | 0.03 | 0.00 | 38 | 1008.6 |
| 20260503181704 | 55 | 12 | 2.0 | 12.0 | 0.00 | 0.03 | 0.00 | 39 | 1008.4 |
| 20260503181204 | 55 | 334 | 2.0 | 12.0 | 0.00 | 0.03 | 0.00 | 40 | 1008.4 |
| 20260503180704 | 55 | 284 | 4.0 | 10.0 | 0.00 | 0.03 | 0.00 | 38 | 1008.4 |
| 20260503180204 | 55 | 4 | 5.0 | 13.0 | 0.00 | 0.04 | 0.00 | 38 | 1008.4 |
| 20260503175204 | 54 | 254 | 2.0 | 18.0 | 0.00 | 0.05 | 0.00 | 40 | 1008.4 |
| 20260503174704 | 54 | 304 | 7.0 | 13.0 | 0.00 | 0.06 | 0.00 | 40 | 1008.7 |
| 20260503174204 | 54 | 336 | 4.0 | 15.0 | 0.00 | 0.07 | 0.00 | 40 | 1008.7 |
| 20260503173704 | 54 | 355 | 4.0 | 12.0 | 0.00 | 0.08 | 0.00 | 42 | 1008.7 |
| 20260503173204 | 55 | 334 | 6.0 | 12.0 | 0.00 | 0.08 | 0.00 | 41 | 1008.7 |
| 20260503172704 | 55 | 9 | 3.0 | 8.0 | 0.00 | 0.08 | 0.00 | 43 | 1008.6 |
| 20260503172204 | 55 | 348 | 5.0 | 12.0 | 0.00 | 0.09 | 0.00 | 43 | 1008.5 |
| 20260503171704 | 54 | 287 | 7.0 | 13.0 | 0.00 | 0.09 | 0.00 | 43 | 1008.7 |
| 20260503171204 | 54 | 339 | 4.0 | 16.0 | 0.00 | 0.09 | 0.00 | 45 | 1008.7 |
| 20260503170704 | 54 | 324 | 5.0 | 14.0 | 0.00 | 0.09 | 0.00 | 43 | 1008.6 |
| 20260503170204 | 54 | 309 | 5.0 | 15.0 | 0.00 | 0.09 | 0.00 | 43 | 1008.5 |